• In India
  • List of Countries
  • For 7 days
  • Water Temperature
  • Satellite Maps
  • Weather Map
  • Weather Widgets
  • user-avatar
    Login

    Hourly Weather Gjirokaster

    Today, 26 September, Tuesday

    Time Temperature Precipitation Wind Pressure Humidity
    00:00 +9°C° 0 mm 1 mps 652 mmHg 83%
    01:00 +8°C° 0 mm 2 mps 652 mmHg 83%
    02:00 +9°C° 0 mm 1 mps 652 mmHg 83%
    03:00 +8°C° 0 mm 1 mps 652 mmHg 83%
    04:00 +8°C° 0 mm 1 mps 652 mmHg 83%
    05:00 +9°C° 0 mm 1 mps 652 mmHg 80%
    06:00 +10°C° 0 mm 1 mps 652 mmHg 77%
    07:00 +10°C° 0 mm 1 mps 652 mmHg 74%
    08:00 +12°C° 0 mm 1 mps 653 mmHg 67%
    09:00 +14°C° 0 mm 1 mps 654 mmHg 59%
    10:00 +15°C° 0 mm 0 mps 654 mmHg 51%
    11:00 +18°C° 0.1 mm 1 mps 654 mmHg 50%
    12:00 +17°C° 0.1 mm 2 mps 654 mmHg 49%
    13:00 +17°C° 0.1 mm 2 mps 654 mmHg 48%
    14:00 +17°C° 0.2 mm 2 mps 654 mmHg 52%
    15:00 +16°C° 0.2 mm 2 mps 654 mmHg 56%
    16:00 +15°C° 0.2 mm 2 mps 654 mmHg 60%
    17:00 +14°C° 0.1 mm 2 mps 654 mmHg 66%
    18:00 +13°C° 0.1 mm 2 mps 654 mmHg 72%
    19:00 +12°C° 0.1 mm 2 mps 654 mmHg 77%
    20:00 +11°C° 0 mm 1 mps 654 mmHg 78%
    21:00 +11°C° 0 mm 1 mps 654 mmHg 79%
    22:00 +10°C° 0 mm 1 mps 654 mmHg 80%
    23:00 +10°C° 0 mm 1 mps 654 mmHg 81%

    Tomorrow, 27 September, Wednesday

    Time Temperature Precipitation Wind Pressure Humidity
    00:00 +10°C° 0 mm 1 mps 654 mmHg 81%
    01:00 +10°C° 0 mm 1 mps 654 mmHg 81%
    02:00 +9°C° 0 mm 1 mps 654 mmHg 82%
    03:00 +9°C° 0 mm 1 mps 654 mmHg 82%
    04:00 +9°C° 0 mm 1 mps 654 mmHg 82%
    05:00 +10°C° 0 mm 1 mps 654 mmHg 79%
    06:00 +10°C° 0 mm 1 mps 654 mmHg 77%
    07:00 +11°C° 0 mm 1 mps 655 mmHg 74%
    08:00 +13°C° 0 mm 1 mps 655 mmHg 67%
    09:00 +15°C° 0 mm 1 mps 656 mmHg 59%
    10:00 +16°C° 0 mm 1 mps 656 mmHg 52%
    11:00 +18°C° 0 mm 1 mps 656 mmHg 51%
    12:00 +17°C° 0 mm 2 mps 656 mmHg 49%
    13:00 +17°C° 0 mm 2 mps 656 mmHg 48%
    14:00 +17°C° 0.1 mm 2 mps 656 mmHg 51%
    15:00 +16°C° 0.1 mm 2 mps 656 mmHg 54%
    16:00 +16°C° 0.1 mm 2 mps 656 mmHg 58%
    17:00 +15°C° 0.1 mm 2 mps 656 mmHg 64%
    18:00 +13°C° 0.1 mm 2 mps 656 mmHg 70%
    19:00 +12°C° 0.1 mm 2 mps 656 mmHg 77%
    20:00 +12°C° 0 mm 1 mps 656 mmHg 77%
    21:00 +11°C° 0 mm 1 mps 656 mmHg 78%
    22:00 +11°C° 0 mm 1 mps 656 mmHg 78%
    23:00 +11°C° 0.1 mm 1 mps 656 mmHg 79%

    Day after tomorrow, 28 September, Thursday

    Time Temperature Precipitation Wind Pressure Humidity
    00:00 +11°C° 0.1 mm 1 mps 656 mmHg 79%
    01:00 +10°C° 0.1 mm 1 mps 656 mmHg 79%
    02:00 +10°C° 0 mm 1 mps 655 mmHg 79%
    03:00 +10°C° 0 mm 1 mps 655 mmHg 79%
    04:00 +10°C° 0 mm 1 mps 655 mmHg 80%
    05:00 +9°C° 0 mm 2 mps 655 mmHg 78%
    06:00 +10°C° 0 mm 2 mps 655 mmHg 76%
    07:00 +10°C° 0 mm 2 mps 656 mmHg 74%
    08:00 +13°C° 0 mm 1 mps 656 mmHg 68%
    09:00 +15°C° 0 mm 1 mps 657 mmHg 61%
    10:00 +16°C° 0 mm 1 mps 657 mmHg 55%
    11:00 +18°C° 0.2 mm 1 mps 657 mmHg 53%
    12:00 +17°C° 0.2 mm 2 mps 657 mmHg 52%
    13:00 +18°C° 0.2 mm 2 mps 657 mmHg 51%
    14:00 +17°C° 0.9 mm 2 mps 656 mmHg 55%
    15:00 +16°C° 0.9 mm 2 mps 656 mmHg 59%
    16:00 +15°C° 0.9 mm 2 mps 656 mmHg 63%
    17:00 +14°C° 0.7 mm 2 mps 656 mmHg 68%
    18:00 +13°C° 0.7 mm 2 mps 656 mmHg 73%
    19:00 +12°C° 0.7 mm 2 mps 655 mmHg 78%
    20:00 +12°C° 0.2 mm 2 mps 655 mmHg 79%
    21:00 +10°C° 0.2 mm 2 mps 655 mmHg 80%
    22:00 +10°C° 0.2 mm 2 mps 655 mmHg 81%
    23:00 +9°C° 0.2 mm 2 mps 655 mmHg 82%

    29 September, Friday

    Time Temperature Precipitation Wind Pressure Humidity
    00:00 +9°C° 0.2 mm 2 mps 655 mmHg 83%
    01:00 +9°C° 0.2 mm 2 mps 655 mmHg 83%
    02:00 +8°C° 0.1 mm 2 mps 654 mmHg 83%
    03:00 +8°C° 0.1 mm 2 mps 654 mmHg 83%
    04:00 +8°C° 0.1 mm 2 mps 654 mmHg 83%
    05:00 +8°C° 0.1 mm 2 mps 654 mmHg 81%
    06:00 +9°C° 0.1 mm 2 mps 654 mmHg 79%
    07:00 +9°C° 0.1 mm 2 mps 654 mmHg 77%
    08:00 +12°C° 0.1 mm 2 mps 655 mmHg 71%
    09:00 +13°C° 0.1 mm 2 mps 655 mmHg 64%
    10:00 +15°C° 0.1 mm 2 mps 656 mmHg 57%
    11:00 +15°C° 0.6 mm 2 mps 655 mmHg 57%
    12:00 +15°C° 0.6 mm 2 mps 655 mmHg 58%
    13:00 +15°C° 0.6 mm 2 mps 655 mmHg 59%
    14:00 +14°C° 1.5 mm 2 mps 654 mmHg 64%
    15:00 +13°C° 1.5 mm 1 mps 654 mmHg 68%
    16:00 +13°C° 1.5 mm 1 mps 654 mmHg 73%
    17:00 +12°C° 0.8 mm 1 mps 654 mmHg 76%
    18:00 +11°C° 0.8 mm 1 mps 654 mmHg 79%
    19:00 +10°C° 0.8 mm 1 mps 654 mmHg 82%
    20:00 +10°C° 0.3 mm 1 mps 654 mmHg 82%
    21:00 +9°C° 0.3 mm 2 mps 654 mmHg 83%
    22:00 +8°C° 0.3 mm 2 mps 654 mmHg 83%
    23:00 +8°C° 0.3 mm 2 mps 653 mmHg 83%

    30 September, Saturday

    Time Temperature Precipitation Wind Pressure Humidity
    00:00 +8°C° 0.3 mm 2 mps 653 mmHg 83%
    01:00 +7°C° 0.3 mm 2 mps 653 mmHg 83%
    02:00 +7°C° 0.1 mm 2 mps 653 mmHg 83%
    03:00 +7°C° 0.1 mm 2 mps 653 mmHg 83%
    04:00 +7°C° 0.1 mm 2 mps 653 mmHg 83%
    05:00 +7°C° 0 mm 2 mps 653 mmHg 81%
    06:00 +8°C° 0 mm 2 mps 653 mmHg 79%
    07:00 +8°C° 0 mm 2 mps 653 mmHg 77%
    08:00 +10°C° 0 mm 2 mps 653 mmHg 70%
    09:00 +12°C° 0 mm 2 mps 654 mmHg 64%
    10:00 +14°C° 0 mm 1 mps 654 mmHg 57%
    11:00 +14°C° 0.1 mm 1 mps 654 mmHg 56%
    12:00 +14°C° 0.1 mm 2 mps 654 mmHg 56%
    13:00 +14°C° 0.1 mm 2 mps 654 mmHg 56%
    14:00 +14°C° 0.2 mm 2 mps 653 mmHg 58%
    15:00 +14°C° 0.2 mm 1 mps 653 mmHg 60%
    16:00 +14°C° 0.2 mm 1 mps 653 mmHg 62%
    17:00 +12°C° 0.2 mm 1 mps 653 mmHg 67%
    18:00 +11°C° 0.2 mm 1 mps 653 mmHg 73%
    19:00 +9°C° 0.2 mm 0 mps 653 mmHg 78%
    20:00 +9°C° 0.1 mm 0 mps 653 mmHg 79%
    21:00 +10°C° 0.1 mm 1 mps 653 mmHg 80%
    22:00 +9°C° 0.1 mm 1 mps 653 mmHg 81%
    23:00 +9°C° 0 mm 1 mps 653 mmHg 81%

    1 October, Sunday

    Time Temperature Precipitation Wind Pressure Humidity
    00:00 +9°C° 0 mm 1 mps 653 mmHg 82%
    01:00 +9°C° 0 mm 1 mps 652 mmHg 82%
    02:00 +8°C° 0 mm 1 mps 652 mmHg 83%
    03:00 +8°C° 0 mm 1 mps 652 mmHg 83%
    04:00 +8°C° 0 mm 1 mps 652 mmHg 83%
    05:00 +9°C° 0 mm 1 mps 652 mmHg 81%
    06:00 +8°C° 0 mm 2 mps 652 mmHg 79%
    07:00 +9°C° 0 mm 2 mps 653 mmHg 76%
    08:00 +10°C° 0.1 mm 2 mps 653 mmHg 70%
    09:00 +13°C° 0.1 mm 2 mps 653 mmHg 64%
    10:00 +14°C° 0.1 mm 2 mps 654 mmHg 58%
    11:00 +14°C° 0.2 mm 2 mps 654 mmHg 58%
    12:00 +14°C° 0.2 mm 3 mps 653 mmHg 58%
    13:00 +14°C° 0.2 mm 3 mps 653 mmHg 57%
    14:00 +14°C° 0.2 mm 2 mps 653 mmHg 60%
    15:00 +14°C° 0.2 mm 2 mps 653 mmHg 62%
    16:00 +14°C° 0.2 mm 2 mps 652 mmHg 65%
    17:00 +13°C° 0.1 mm 1 mps 652 mmHg 71%
    18:00 +11°C° 0.1 mm 1 mps 652 mmHg 78%
    19:00 +10°C° 0.1 mm 1 mps 652 mmHg 84%
    20:00 +10°C° 0 mm 1 mps 652 mmHg 85%
    21:00 +10°C° 0 mm 1 mps 652 mmHg 87%
    22:00 +9°C° 0 mm 1 mps 652 mmHg 88%
    23:00 +8°C° 0 mm 2 mps 652 mmHg 88%
    Show more